Regional Weather Roundup
Issued by NWS Memphis, TN

Home | Current Version | Previous Version | Text Only | Print | Product List | Glossary On
Versions: 1 2 3 4 5 6 7 8 9 10 11 12 13 14 15 16 17 18 19 20 21 22 23 24 25 26 27 28 29 30 31 32 33 34 35 36 37 38 39 40 41 42 43 44 45 46 47 48 49 50
000
ASUS44 KMEG 230210
RWRMEG
MEMPHIS CWA HOURLY WEATHER ROUNDUP
NATIONAL WEATHER SERVICE MEMPHIS TN
900 PM CDT WED OCT 22 2014

...WEST TENNESSEE...

CITY           SKY/WX    TMP DP  RH WIND       PRES   REMARKS
MEMPHIS INTL   CLEAR     57  44  62 NE7       30.19R
NWS MEMPHIS      N/A     51 N/A N/A MISG        N/A
JACKSON        CLEAR     49  44  83 CALM      30.20S
LEXINGTON      CLEAR     45  43  93 CALM      30.20R
SAVANNAH       CLEAR     46  45  93 CALM      30.20R
DYERSBURG      CLEAR     52  36  54 CALM      30.22R
UNION CITY     CLEAR     45  43  93 CALM      30.20R
PARIS          CLEAR     45  39  81 NE3       30.21F
HUNTINGDON     CLEAR     48  39  71 NE5       30.21F


...EASTERN ARKANSAS...

CITY           SKY/WX    TMP DP  RH WIND       PRES   REMARKS
JONESBORO      CLEAR     50  45  83 NE5       30.19R
WEST MEMPHIS   CLEAR     52  46  80 NE5       30.18R
BATESVILLE     CLEAR     54  43  66 N3        30.20R
NEWPORT        CLEAR     51  45  80 NE6       30.20R
WALNUT RIDGE   CLEAR     50  36  57 NE9       30.19S
BLYTHEVILLE    CLEAR     51  44  77 E3        30.20S
SEARCY         CLEAR     50  45  83 N5        30.20R
STUTTGART      CLEAR     54  45  71 NE5       30.18R
PINE BLUFF     CLEAR     56  45  66 N3        30.17R
MONTICELLO     LGT RAIN  55  49  80 CALM      30.15R


...NORTH MISSISSIPPI...

CITY           SKY/WX    TMP DP  RH WIND       PRES   REMARKS
TUPELO         CLEAR     52  45  77 CALM      30.18R
OXFORD         CLEAR     46  45  93 CALM      30.19S
OLIVE BRANCH   CLEAR     52  46  82 CALM      30.19R
TUNICA         CLEAR     52  46  82 NE6       30.18S
CLARKSDALE     CLEAR     55  46  71 NE6       30.17S
CORINTH        CLEAR     50  45  81 CALM      30.19S
GRENADA          N/A    N/A N/A N/A MISG        N/A
GREENWOOD      CLEAR     53  46  77 NE5       30.15S
COLUMBUS       CLEAR     50  47  89 NW1       30.16R
STARKVILLE     FAIR      50  46  87 N3        30.15S
GOLDEN TRIANGL CLEAR     54  43  66 N7        30.15S


...SOUTHEAST MISSOURI...

CITY           SKY/WX    TMP DP  RH WIND       PRES   REMARKS
WEST PLAINS    CLEAR     48  41  76 CALM      30.22R
POPLAR BLUFF   CLEAR     47  42  83 CALM      30.20R
CAPE GIRARDEAU CLEAR     49  42  77 CALM      30.22R


...NORTHWEST ALABAMA...

CITY           SKY/WX    TMP DP  RH WIND       PRES   REMARKS
MUSCLE SHOALS  CLEAR     55  40  56 E3        30.20R


...MIDDLE TENNESSEE...

CITY           SKY/WX    TMP DP  RH WIND       PRES   REMARKS
NASHVILLE      CLEAR     51  42  71 NE6       30.21S
CLARKSVILLE    CLEAR     49  41  74 CALM      30.22S
COLUMBIA       CLEAR     46  45  93 CALM      30.19S


...WESTERN KENTUCKY...

CITY           SKY/WX    TMP DP  RH WIND       PRES   REMARKS
PADUCAH        CLEAR     45  42  89 CALM      30.21F
FORT CAMPBELL  CLEAR     49  41  74 NE3       30.22S


...CENTRAL ARKANSAS...

CITY           SKY/WX    TMP DP  RH WIND       PRES   REMARKS
LITTLE ROCK    CLEAR     57  44  62 N3        30.20R


SKY/WX REPORTED AS FAIR MEANS FEW OR NO CLOUDS BELOW
12 THOUSAND FEET.




USA.gov is the U.S. government's official web portal to all federal, state and local government web resources and services.